Theta_e
301 301 301 301 301 301 302 302 302 303 303 303 303 303 304 306 306 304 301 305 300 294 295 298 298 296 295 295 291 296 294 296 296 291 291 290 290 292 293 294 291 287 284 282 286 282 282 305 302 295 298 302 303 300
301 300 300 300 301 301 301 301 302 302 303 302 303 303 303 305 306 306 298 304 306 298 296 301 302 303 300 301 298 299 294 294 298 293 292 293 291 293 292 284 296 285 292 288 290 289 300 303 301 304 302 300 301 300
300 300 300 300 300 301 301 301 301 302 302 302 303 303 304 304 305 304 300 302 302 297 297 297 298 305 308 307 308 296 299 301 301 302 297 296 290 295 286 289 292 297 299 292 294 299 301 303 303 303 302 300 303 303
300 300 300 299 300 300 301 301 301 301 301 302 303 303 303 304 305 305 300 303 301 298 290 294 304 301 306 308 308 307 304 304 304 302 296 295 292 296 290 292 292 294 297 294 294 298 299 301 300 300 300 300 300 300
299 299 299 299 299 300 300 301 301 301 301 302 303 303 303 303 304 303 302 303 305 297 290 292 299 304 308 307 306 307 303 300 298 294 293 293 295 293 294 292 292 297 295 290 290 298 299 299 299 301 297 295 295 294
299 299 299 299 299 299 300 300 301 301 301 302 304 305 304 304 304 300 296 303 305 304 294 288 299 300 304 305 305 303 302 301 297 294 292 294 297 292 288 287 294 298 301 301 297 300 298 299 299 298 295 294 295 295
298 299 299 299 299 299 300 300 301 301 301 303 304 305 305 305 303 295 295 300 305 304 294 290 291 302 305 305 303 301 303 299 298 294 292 292 292 294 289 286 296 300 301 300 302 300 296 297 293 295 295 295 295 293
298 298 298 299 299 300 300 301 301 301 303 304 304 305 306 306 304 299 304 305 305 300 297 290 291 295 305 297 295 303 299 299 296 295 294 291 293 292 287 296 299 300 300 300 299 299 296 294 294 293 292 291 290 289
298 298 298 298 299 300 301 301 301 302 303 303 304 306 305 302 297 300 308 306 307 299 290 291 289 287 302 298 300 299 299 292 299 293 293 293 291 287 294 298 298 299 296 296 297 295 293 292 291 290 289 288 287 286
298 298 298 298 299 300 301 301 301 303 303 304 304 297 292 298 304 304 302 297 296 296 296 291 292 289 298 296 296 297 298 293 290 293 297 289 290 298 301 302 301 301 299 299 291 289 290 290 289 288 287 287 286 286
298 298 298 298 299 300 301 301 302 302 303 301 295 293 301 304 300 297 292 291 293 290 294 295 293 293 300 294 293 297 292 294 287 290 290 289 289 296 301 300 300 297 294 293 292 291 291 291 289 288 287 286 286 285
297 297 298 298 299 300 300 301 302 299 298 299 298 300 298 295 293 290 290 292 291 290 297 294 296 298 299 301 295 295 291 293 287 297 290 287 294 298 298 297 296 295 294 292 292 291 291 292 289 287 286 285 285 285
297 298 298 299 299 300 300 301 301 301 303 302 296 292 291 291 285 286 285 289 290 295 297 296 294 298 298 299 296 293 289 288 297 289 287 292 297 298 297 296 295 295 293 292 291 291 291 290 290 287 285 285 285 283
298 298 298 299 299 300 301 301 300 301 299 293 289 284 288 287 289 290 291 291 295 299 298 297 296 295 297 294 294 290 292 294 287 284 287 294 296 297 298 296 295 293 292 291 291 291 290 289 288 288 286 285 284 283
298 298 298 299 300 300 300 301 301 302 297 291 290 284 288 294 295 296 297 297 300 301 300 298 296 297 294 293 293 292 289 287 288 287 293 296 297 298 296 295 294 293 292 291 291 291 290 289 288 287 287 286 285 284
298 298 299 300 300 300 300 300 303 302 296 293 291 289 293 292 292 293 294 294 301 301 302 300 295 292 291 293 290 289 288 285 288 294 297 298 299 298 295 295 295 295 293 292 291 291 290 289 287 287 288 287 285 284
297 295 300 300 300 300 301 299 301 296 293 291 291 296 294 291 289 291 295 296 303 300 295 296 291 290 295 290 290 293 289 293 297 297 299 299 298 295 296 296 296 295 293 292 291 290 290 290 289 288 286 287 287 286
294 298 300 299 299 300 302 301 298 294 290 293 292 295 297 296 294 297 301 302 301 300 299 295 299 293 291 289 290 295 298 300 301 299 299 299 297 297 297 296 296 295 294 292 292 291 290 289 288 287 288 289 288 287
297 298 298 298 298 295 294 298 300 291 292 295 296 298 298 299 303 303 303 303 304 304 300 298 295 290 291 297 297 298 299 300 299 299 299 300 298 297 297 297 296 295 294 293 292 291 291 290 289 290 289 289 287 288
298 298 299 300 299 294 293 296 301 293 290 295 297 295 297 298 301 303 303 302 301 300 296 295 294 298 298 300 302 302 302 302 300 297 297 299 298 298 297 296 295 295 295 294 292 291 291 290 290 290 289 288 287 287
298 299 299 300 299 296 295 294 295 296 294 293 296 296 296 300 299 299 300 303 298 297 296 298 298 299 305 305 304 304 303 302 300 298 297 295 297 297 297 298 297 296 293 292 291 292 291 289 289 289 289 288 288 288
298 299 298 301 296 297 295 298 294 296 293 294 294 296 294 294 297 299 302 297 297 299 301 302 302 303 303 304 305 305 305 304 303 299 297 296 295 295 296 297 296 295 294 293 293 293 292 293 292 292 290 289 289 289
298 298 296 296 292 290 288 298 292 293 289 292 295 293 293 295 298 303 297 299 301 305 304 304 304 307 305 306 307 305 304 304 301 300 298 298 298 297 298 298 297 297 295 294 295 294 293 290 290 291 290 290 289 288
295 293 290 291 291 286 294 291 294 293 293 291 291 290 293 297 300 297 294 298 301 303 304 305 305 303 303 304 301 302 303 303 301 300 300 299 296 297 298 298 297 297 298 297 296 294 293 293 292 291 291 291 290 290
288 287 288 283 291 289 288 289 290 290 288 291 290 291 295 299 293 292 293 296 298 299 303 305 304 302 302 303 304 303 305 302 301 298 299 301 299 298 297 297 297 298 299 296 295 294 294 293 293 293 294 293 292 291
283 288 286 289 289 288 289 288 289 289 290 290 291 295 296 294 291 289 293 296 298 300 302 301 303 303 303 305 303 304 304 304 304 300 300 301 300 298 297 296 295 295 299 299 297 295 295 294 295 293 292 291 289 292
282 285 291 295 293 293 291 293 294 293 290 289 292 292 293 288 289 292 297 299 299 301 303 304 303 302 303 305 308 309 310 308 306 304 305 302 302 302 300 298 297 298 301 300 299 297 296 295 295 294 293 293 293 293
287 290 288 291 291 292 289 290 290 290 292 297 295 289 288 288 290 297 299 301 302 303 303 303 306 303 303 304 307 308 307 308 307 306 305 303 306 306 306 304 303 292 302 302 301 299 298 297 295 294 293 293 293 294
288 292 292 289 291 292 292 290 291 296 300 298 293 292 292 298 299 298 300 301 301 302 300 299 300 303 303 305 307 308 308 306 302 300 300 298 300 301 304 301 300 302 299 295 288 295 299 297 296 296 295 294 293 293
289 294 290 291 289 289 294 298 298 301 303 301 302 299 298 300 301 302 300 300 299 298 299 300 301 301 300 301 303 303 305 307 306 303 300 300 301 304 303 302 302 299 298 295 293 291 288 293 291 294 293 292 291 289
295 295 291 291 290 295 298 302 302 300 301 301 302 298 297 299 299 301 300 300 299 299 298 297 299 300 298 298 299 300 301 303 306 307 307 306 305 304 304 303 303 299 297 296 296 295 294 294 293 292 292 291 290 290
293 292 291 289 292 297 299 298 298 298 298 298 297 298 296 295 293 296 298 299 297 296 291 296 296 296 298 299 300 301 289 302 305 302 304 305 305 303 303 303 302 300 298 298 297 296 295 294 292 292 291 291 290 290
292 292 292 291 292 292 294 295 294 293 295 295 295 297 297 295 291 294 297 297 296 295 294 294 295 296 295 296 296 297 294 301 296 287 287 288 287 289 297 302 300 299 298 297 297 296 294 294 292 292 290 289 289 289
Wind_Speed
12 13 14 15 16 17 17 17 18 19 20 20 21 21 21 20 19 10 8 7 4 5 11 18 15 11 11 7 5 6 7 3 4 3 4 4 3 3 4 6 7 4 4 1 2 3 3 6 8 6 5 6 10 9
12 13 14 15 16 17 18 18 19 19 20 21 21 21 21 21 19 16 6 6 6 5 9 16 19 19 18 17 11 3 1 9 3 3 2 3 4 1 3 2 4 3 3 5 5 3 5 11 12 8 8 10 7 7
13 14 14 15 17 18 18 19 19 19 20 21 22 22 21 21 20 14 6 7 5 4 8 7 9 6 4 5 5 2 2 5 3 2 3 2 2 4 4 2 4 5 3 4 6 7 9 12 6 8 8 7 7 8
13 14 15 16 17 18 19 19 20 20 20 22 22 22 21 21 19 17 6 7 5 3 4 6 9 10 11 9 7 5 6 6 8 4 6 4 1 5 3 4 5 3 2 3 7 11 12 8 7 7 9 9 12 14
13 14 15 16 17 19 20 19 21 21 21 23 23 23 22 22 20 13 10 9 7 4 4 7 15 6 6 2 5 5 5 6 4 3 3 4 3 6 5 4 7 5 5 3 3 6 9 4 6 9 13 13 11 9
13 14 16 16 17 19 20 20 20 22 23 24 25 25 23 20 16 5 4 3 5 2 2 4 4 6 6 10 8 5 4 3 2 1 1 3 2 3 3 3 2 7 9 7 6 6 8 9 9 14 11 11 8 13
14 14 16 18 19 20 20 20 22 23 24 25 25 24 22 19 6 3 4 3 6 3 2 4 5 4 3 1 3 1 4 2 1 0 3 1 2 4 2 2 5 8 10 8 7 9 8 8 9 17 16 14 14 12
13 15 16 18 18 20 21 20 22 23 24 25 25 26 22 15 11 7 6 18 9 3 2 4 3 4 3 1 1 1 2 3 4 1 2 2 1 0 1 5 8 6 7 8 9 8 7 15 19 16 14 12 12 10
14 16 17 17 18 20 20 21 22 23 25 26 25 21 3 1 2 3 6 8 2 1 2 3 2 3 3 2 0 0 1 1 2 1 1 3 1 1 1 8 6 5 6 5 7 9 15 18 16 13 13 12 9 7
14 15 16 18 19 19 20 20 22 23 28 28 5 3 2 2 10 11 3 2 2 3 3 3 3 4 2 2 2 1 2 3 2 4 3 0 1 4 7 12 7 7 10 7 15 12 13 14 14 12 12 8 6 6
15 17 16 17 18 19 19 19 20 23 13 3 3 2 3 8 2 2 3 3 4 4 5 4 6 4 6 3 3 4 3 3 3 4 4 2 3 3 7 7 7 15 17 16 16 14 13 13 11 10 8 8 7 7
16 16 17 18 18 19 18 18 16 7 3 7 6 4 2 2 2 3 4 3 4 3 3 2 1 2 2 1 1 3 1 2 2 1 2 3 3 5 8 8 12 13 16 16 15 14 12 12 12 10 8 8 7 7
16 17 18 19 19 19 18 17 16 16 13 2 2 3 2 2 2 5 3 2 1 6 2 0 1 1 2 2 2 2 2 2 4 2 2 2 4 7 6 10 13 15 17 16 15 12 12 12 12 10 9 8 7 5
16 17 18 19 19 21 15 15 17 9 3 2 2 4 3 3 1 1 2 3 5 4 5 6 1 1 2 2 3 2 1 3 1 2 2 4 7 6 5 10 12 13 13 13 13 12 11 11 10 10 10 8 6 7
17 19 21 19 9 10 15 17 16 3 2 3 2 4 4 3 6 4 6 4 4 4 3 4 2 2 3 2 1 3 2 1 4 2 3 5 7 5 8 12 12 11 11 10 11 10 10 11 9 10 8 7 7 6
16 18 3 7 9 14 18 13 2 3 2 3 4 4 3 5 4 4 4 5 4 3 2 2 3 3 4 2 4 2 2 2 2 3 6 6 6 5 10 10 10 11 10 9 10 11 10 10 9 9 8 7 7 7
16 5 5 12 16 18 13 2 2 3 3 4 4 4 2 5 5 4 3 4 3 3 1 2 2 4 2 2 2 2 2 3 4 6 6 7 6 9 9 12 12 12 10 10 10 11 11 10 8 7 7 7 7 7
9 9 11 16 14 10 2 4 3 3 5 5 4 5 6 6 5 5 4 5 2 2 2 2 3 3 4 2 3 2 3 3 5 5 7 7 8 10 10 11 11 10 9 10 9 11 10 10 8 6 6 7 6 6
11 11 17 17 9 4 4 2 3 3 4 5 5 5 3 4 4 4 4 3 1 1 3 3 2 2 2 3 3 3 4 5 5 7 6 8 9 10 10 12 11 9 8 8 7 5 7 7 7 8 6 5 4 4
17 18 20 11 4 3 4 3 2 3 4 4 6 5 4 3 3 2 3 3 1 2 2 3 3 2 3 4 3 5 4 5 7 8 6 5 8 9 10 10 8 8 6 8 6 6 4 5 5 5 6 6 7 5
12 2 6 5 4 5 4 4 3 2 4 4 7 5 5 2 1 2 2 3 2 2 3 3 5 10 1 6 6 5 4 5 5 6 7 8 7 7 7 8 9 7 7 6 5 5 7 6 6 6 6 5 4 4
2 5 3 5 3 5 4 4 3 4 3 4 7 6 4 4 2 3 3 3 2 1 2 4 3 4 4 5 5 4 6 6 5 5 11 10 7 7 7 8 7 8 7 7 6 6 5 4 5 7 7 5 5 4
7 4 3 4 3 1 6 3 3 3 3 3 3 3 3 3 3 4 2 3 2 3 3 5 7 5 3 5 6 6 7 6 3 5 7 6 7 7 7 7 6 6 6 7 6 8 7 8 7 6 5 6 5 4
2 3 3 3 6 4 3 3 4 3 3 3 4 4 2 1 1 2 2 2 4 7 3 3 2 5 4 3 4 4 4 3 4 4 3 5 6 5 5 6 4 4 6 8 7 7 8 7 9 8 8 7 6 7
3 4 3 5 4 3 4 5 5 4 5 6 8 4 1 2 2 3 3 3 3 7 4 5 6 5 3 2 1 4 3 2 4 4 2 3 5 4 4 5 5 7 8 9 8 9 6 7 7 7 8 8 9 9
3 5 5 5 5 5 5 3 6 8 7 4 5 5 2 3 0 4 3 1 2 3 5 6 5 4 5 5 2 2 1 3 3 3 1 2 4 4 5 7 6 3 5 7 9 10 10 7 5 8 7 7 8 11
4 6 6 5 4 6 5 4 6 3 4 3 1 1 1 1 4 2 2 3 2 4 5 4 4 4 4 3 3 3 4 5 3 3 2 2 3 1 4 6 10 7 7 8 8 9 10 7 10 8 7 5 4 6
5 5 5 4 5 5 8 6 4 3 0 1 4 4 3 3 2 2 1 2 4 5 4 3 3 3 2 1 2 3 1 3 3 2 1 2 2 3 4 1 8 13 8 9 8 8 8 9 9 10 9 6 5 5
5 6 5 9 8 4 5 6 4 2 5 3 2 3 2 2 2 2 2 1 2 3 3 4 4 3 3 3 3 3 2 3 4 4 5 3 3 1 1 3 5 6 5 5 6 10 11 10 8 8 9 8 6 6
9 7 6 6 9 5 3 4 2 1 2 3 2 2 4 3 4 3 3 1 3 3 3 3 3 3 4 4 4 5 5 3 2 2 3 4 2 4 4 3 5 7 7 8 9 8 10 11 10 10 9 6 6 5
2 3 6 8 7 2 1 3 0 8 4 2 3 4 4 3 4 5 6 4 4 5 5 5 6 6 7 7 6 5 4 5 8 6 3 2 2 2 3 4 3 7 8 9 8 9 10 9 7 8 9 9 9 6
4 5 3 4 5 2 4 4 3 1 1 3 2 5 4 3 3 3 5 5 5 6 6 6 6 5 6 6 6 4 2 5 3 4 8 5 4 4 0 3 8 8 9 9 6 8 8 9 7 7 7 10 7 9
6 6 4 4 3 4 4 3 2 2 2 3 3 3 2 2 3 2 4 6 5 5 6 6 6 6 6 7 6 6 8 6 2 3 5 4 4 5 4 4 5 9 10 8 6 9 8 11 8 9 10 8 9 9
Wind_Direction
306 308 315 318 321 319 319 318 320 323 326 323 324 326 326 322 322 324 282 275 260 260 277 265 281 301 300 303 302 320 326 356 301 321 28 308 86 136 280 115 129 129 114 196 20 83 121 333 31 64 134 75 75 57
301 307 314 319 320 317 319 319 318 319 321 323 323 320 320 318 320 334 278 302 285 259 273 296 276 267 257 261 271 198 243 301 322 306 34 340 341 62 341 98 127 108 152 163 136 170 104 72 108 108 114 115 97 91
300 307 313 316 316 318 318 318 315 314 317 320 320 318 316 316 318 328 296 294 296 258 280 251 274 267 273 272 206 138 175 246 325 125 303 249 118 268 126 43 66 69 61 106 80 36 91 105 94 94 90 87 97 90
303 307 312 315 316 317 315 317 317 314 315 316 317 315 318 316 317 320 289 284 274 273 271 281 348 297 306 247 226 202 219 288 256 194 226 224 119 4 57 169 115 182 93 151 89 118 76 75 107 116 90 61 55 53
302 310 314 315 315 314 314 318 314 314 313 314 316 315 315 313 313 310 278 259 230 213 285 295 301 274 8 12 310 192 194 235 283 325 353 13 31 7 344 74 45 25 25 40 104 118 106 62 46 80 79 74 58 49
305 308 311 313 314 313 313 316 315 314 314 312 314 311 309 305 313 308 297 15 22 240 277 291 331 312 29 309 224 215 259 249 279 337 316 59 10 53 29 57 55 89 70 96 120 98 115 109 77 81 77 79 58 71
304 311 313 313 316 314 312 315 314 312 313 311 311 308 304 294 281 234 252 245 302 306 235 282 289 311 306 252 288 335 297 262 140 1 39 2 61 23 35 45 63 83 88 79 97 90 69 96 86 70 62 48 43 45
310 309 312 312 314 310 312 319 316 314 312 311 310 305 301 288 270 252 243 244 237 263 287 279 268 294 282 338 357 34 342 343 360 345 47 74 79 51 341 127 87 96 106 98 96 103 111 90 74 68 59 44 40 29
313 308 309 311 310 312 317 318 316 317 315 313 312 303 292 116 327 340 359 129 183 262 266 278 294 306 333 351 300 36 160 281 263 210 238 98 189 231 333 124 133 93 97 113 104 96 85 82 78 62 53 43 36 17
300 308 314 311 310 313 320 318 320 324 317 312 300 348 337 334 317 315 232 216 193 194 227 249 63 267 355 275 168 223 208 223 186 214 123 158 113 70 107 109 99 57 27 49 77 61 72 72 77 59 52 41 30 16
307 306 313 309 310 315 319 320 326 333 314 350 336 338 307 309 276 237 255 219 165 226 208 222 160 234 194 238 210 198 208 208 169 213 127 228 88 111 109 109 97 92 88 81 82 76 71 78 77 63 50 37 28 33
304 308 311 309 308 311 318 321 323 337 302 298 292 285 287 280 260 274 232 215 222 254 206 208 228 165 275 144 232 279 190 270 112 116 131 118 142 128 109 99 93 91 94 91 86 81 75 84 86 71 52 35 46 37
304 309 309 308 304 307 311 308 311 311 303 256 226 263 270 234 267 242 266 214 270 334 273 41 167 132 251 265 262 268 287 76 130 150 96 98 135 116 121 108 98 99 100 98 96 93 91 85 83 73 59 47 57 46
307 306 307 304 305 300 299 302 310 322 283 284 292 281 258 219 284 272 250 246 274 280 337 338 125 182 237 265 210 273 238 125 216 116 101 153 137 135 120 115 104 99 98 106 107 101 95 90 91 88 69 58 59 50
309 309 305 298 291 313 307 303 302 253 261 270 246 254 247 324 303 323 316 293 283 313 353 334 336 189 252 231 193 7 237 210 64 133 129 132 129 133 118 110 109 111 114 115 117 111 103 95 93 93 97 72 65 57
317 310 245 334 333 318 305 306 248 186 233 242 228 264 291 306 318 332 320 303 317 309 287 238 266 226 243 192 194 224 20 117 228 142 133 125 130 121 112 115 111 109 111 112 115 116 108 105 102 94 102 103 80 68
307 233 343 5 342 317 297 267 194 220 246 231 233 221 224 269 274 264 257 249 260 299 301 295 268 269 215 160 181 62 110 130 135 117 133 139 122 117 107 108 109 108 109 114 115 117 120 124 121 115 109 103 114 102
274 287 339 344 340 315 263 202 240 240 245 243 253 254 197 205 226 260 227 240 255 313 329 268 275 300 4 20 15 91 95 103 110 123 122 116 120 115 117 119 117 116 119 126 132 139 139 139 132 128 129 137 122 113
296 303 303 306 312 295 285 236 223 264 260 268 264 268 264 257 196 240 272 252 253 284 289 269 11 74 264 209 185 103 129 139 135 127 124 120 128 125 121 120 118 118 124 137 143 142 154 160 147 154 147 136 126 137
287 282 277 278 231 254 259 244 216 242 275 304 295 278 283 264 194 226 289 284 301 269 237 51 296 319 135 139 139 131 127 128 123 130 135 123 124 123 129 129 130 135 116 111 115 128 131 105 98 117 146 139 142 141
302 43 286 219 202 224 283 303 256 252 289 278 304 308 274 249 158 219 249 215 255 282 79 73 275 279 161 86 100 113 138 131 139 149 144 134 139 132 135 131 140 134 145 146 167 151 133 137 141 136 128 126 130 136
281 283 282 208 251 223 238 232 252 313 273 280 292 270 267 279 184 201 198 211 250 263 119 144 268 276 93 104 121 136 117 101 87 90 108 135 139 149 144 157 162 166 168 173 162 144 137 132 119 146 150 141 146 136
282 224 225 247 253 15 258 236 236 222 250 253 261 249 225 224 189 116 200 216 227 208 229 157 212 132 148 101 113 106 123 126 125 119 143 147 150 160 154 173 179 168 159 155 149 143 144 139 136 135 127 132 132 125
207 264 265 266 183 248 258 222 214 238 242 252 251 261 260 294 160 174 212 89 16 348 291 75 348 82 65 131 118 116 132 157 150 132 172 142 155 173 161 167 159 150 132 138 134 130 139 139 143 157 164 166 172 155
246 250 197 256 258 250 232 229 203 228 242 211 257 277 1 326 212 230 91 49 19 346 357 47 44 126 202 127 92 135 137 129 132 140 214 132 138 145 135 134 133 131 129 129 139 148 147 159 173 188 181 162 152 145
248 231 199 234 199 216 232 255 209 217 233 230 235 103 199 231 203 49 49 350 236 293 28 41 56 58 48 38 65 50 80 83 113 128 135 56 146 151 151 148 139 143 137 141 153 156 156 177 163 119 107 114 139 145
253 257 226 227 244 290 295 267 267 251 250 234 56 292 301 32 81 127 225 328 356 353 350 10 37 32 80 65 74 69 31 8 53 104 84 73 15 279 163 156 157 167 157 153 155 159 165 170 141 133 128 139 155 149
252 278 276 253 259 253 271 278 286 264 154 60 56 13 48 41 79 80 101 320 338 331 332 342 38 60 37 44 135 125 161 163 92 73 192 134 12 306 354 31 136 144 166 174 172 157 158 147 146 145 150 156 150 130
239 256 284 276 257 245 244 247 249 40 341 8 117 97 108 128 73 81 45 27 247 277 353 32 27 7 11 28 51 119 171 213 174 176 190 180 223 238 26 103 147 126 108 99 115 142 146 143 138 138 129 122 120 111
246 216 239 265 249 248 17 348 353 216 204 117 113 133 102 93 118 128 135 121 1 25 25 37 24 27 359 31 50 51 22 330 306 323 191 196 200 150 130 121 118 117 114 107 109 106 99 106 106 112 118 115 103 108
258 262 239 247 272 294 264 311 316 265 187 149 155 128 121 158 91 51 38 25 1 40 45 31 50 41 23 21 34 17 31 6 14 352 317 280 241 102 155 149 122 132 127 127 134 129 127 123 126 127 133 134 141 145
220 214 256 288 290 41 290 268 244 214 168 147 173 139 141 134 105 63 8 16 50 51 35 26 18 20 10 0 350 15 13 334 334 3 6 347 1 344 156 155 137 139 141 140 138 135 135 129 130 133 142 130 143 126
237 232 233 274 271 272 262 245 228 234 163 152 160 156 122 106 102 92 71 35 37 28 30 23 356 358 355 343 340 325 313 319 261 63 8 359 30 4 317 67 118 134 140 127 135 141 144 139 140 128 122 128 123 122